GW0656 Weather Reports


time (UTC)temp
C
wind
direction
speed
KPH
gust
KPH
rain 1hr
cm
rain 24hr
cm
rain mn
cm
humidity
%
barometer
mb
20260504014536 12 0 0.0 1.6 0.00 0.03 0.03 62 1014.2
20260504014023 12 0 0.0 1.6 0.00 0.03 0.03 61 1014.1
20260504013522 12 180 0.0 1.6 0.00 0.03 0.03 60 1014.1
20260504013044 13 0 0.0 1.6 0.00 0.03 0.03 59 1014.0
20260504012523 13 0 0.0 3.2 0.00 0.03 0.03 58 1013.8
20260504012024 13 0 0.0 3.2 0.00 0.03 0.03 58 1013.6
20260504011535 13 180 0.0 3.2 0.00 0.03 0.03 57 1013.5
20260504011022 13 180 0.0 3.2 0.00 0.03 0.03 55 1013.6
20260504010522 13 180 0.0 3.2 0.00 0.03 0.03 54 1013.6
20260504010033 14 0 0.0 3.2 0.00 0.03 0.03 53 1013.6
20260504005523 14 0 0.0 6.4 0.00 0.03 0.03 54 1013.5
20260504005022 15 0 0.0 6.4 0.00 0.03 0.03 53 1013.4
20260504004542 15 210 0.0 3.2 0.00 0.03 0.03 51 1013.3
20260504004024 15 0 0.0 1.6 0.00 0.03 0.03 50 1013.4
20260504003522 15 0 0.0 1.6 0.00 0.03 0.03 50 1013.4
20260504003033 16 210 0.0 1.6 0.00 0.03 0.03 49 1013.3
20260504002522 16 0 0.0 1.6 0.00 0.03 0.03 48 1013.4
20260504002022 16 0 0.0 8.0 0.00 0.03 0.03 48 1013.3
20260504001533 16 0 0.0 8.0 0.00 0.03 0.03 48 1013.3
20260504001025 16 360 1.6 8.0 0.00 0.03 0.03 46 1013.4
20260504000524 16 0 0.0 8.0 0.00 0.03 0.03 46 1013.5
20260504000035 17 360 0.0 11.3 0.00 0.03 0.03 45 1013.4
20260503235522 17 0 1.6 11.3 0.00 0.03 0.03 44 1013.4
20260503235022 17 360 3.2 9.7 0.00 0.03 0.03 43 1013.5
20260503234535 17 236 1.6 9.7 0.00 0.03 0.03 43 1013.4
20260503234024 17 178 1.6 12.9 0.00 0.03 0.03 45 1013.5
20260503233522 17 293 1.6 12.9 0.00 0.03 0.03 43 1013.4
20260503233035 17 228 1.6 16.1 0.00 0.03 0.03 44 1013.4
20260503232523 17 264 3.2 17.7 0.00 0.03 0.03 44 1013.4
20260503232022 17 217 3.2 17.7 0.00 0.03 0.03 41 1013.4
20260503231533 18 121 3.2 14.5 0.00 0.03 0.03 44 1013.5
20260503231022 18 281 4.8 14.5 0.00 0.03 0.03 44 1013.7
20260503230522 18 240 1.6 16.1 0.00 0.03 0.03 43 1013.8
20260503230036 18 304 3.2 16.1 0.00 0.03 0.03 43 1013.9
20260503225521 18 86 1.6 17.7 0.00 0.03 0.03 43 1014.0
20260503225022 18 155 4.8 17.7 0.00 0.03 0.03 41 1014.2
20260503224535 18 127 4.8 16.1 0.00 0.03 0.03 41 1014.2
20260503224023 18 240 4.8 19.3 0.00 0.03 0.03 42 1014.3
20260503223524 18 277 8.0 19.3 0.00 0.03 0.03 41 1014.4
20260503223040 18 221 3.2 16.1 0.00 0.03 0.03 42 1014.5
20260503222522 18 282 3.2 12.9 0.00 0.03 0.03 43 1014.6
20260503222022 18 163 1.6 16.1 0.00 0.03 0.03 40 1014.6
20260503221536 18 160 1.6 16.1 0.00 0.03 0.03 40 1014.5
20260503221024 18 188 3.2 16.1 0.00 0.03 0.03 41 1014.6
20260503220522 18 244 3.2 14.5 0.00 0.03 0.03 41 1014.8
20260503220039 18 0 4.8 17.7 0.00 0.03 0.03 42 1014.8
20260503215521 18 242 3.2 17.7 0.00 0.03 0.03 43 1015.0
20260503215023 18 188 3.2 16.1 0.00 0.03 0.03 43 1015.1
20260503214533 18 218 4.8 14.5 0.00 0.03 0.03 42 1015.3
20260503214022 18 219 3.2 14.5 0.00 0.03 0.03 42 1015.3
20260503213525 18 303 6.4 17.7 0.00 0.03 0.03 41 1015.4
20260503213035 18 255 4.8 19.3 0.00 0.03 0.03 42 1015.2
20260503212522 18 248 6.4 22.5 0.00 0.03 0.03 40 1015.2
20260503212021 18 53 4.8 22.5 0.00 0.03 0.03 43 1015.1
20260503211539 18 159 3.2 14.5 0.00 0.03 0.03 41 1015.3
20260503211022 18 242 4.8 19.3 0.00 0.03 0.03 41 1015.3
20260503210521 19 305 6.4 19.3 0.00 0.03 0.03 40 1015.6
20260503210034 19 300 6.4 17.7 0.00 0.03 0.03 41 1015.6
20260503205529 18 349 4.8 17.7 0.00 0.03 0.03 46 1015.6
20260503205022 18 24 4.8 17.7 0.00 0.03 0.03 39 1015.7
20260503204532 18 200 6.4 17.7 0.00 0.03 0.03 39 1015.8
20260503204022 18 177 4.8 17.7 0.00 0.03 0.03 40 1015.8
20260503203522 18 223 6.4 17.7 0.00 0.03 0.03 37 1015.8
20260503203031 18 221 4.8 22.5 0.00 0.03 0.03 40 1015.9
20260503202522 18 220 6.4 22.5 0.00 0.03 0.03 36 1016.1
20260503202022 18 266 4.8 20.9 0.00 0.03 0.03 35 1016.3
20260503201535 18 178 3.2 12.9 0.00 0.03 0.03 41 1016.3
20260503201022 18 250 4.8 20.9 0.00 0.03 0.03 41 1016.5
20260503200522 18 205 6.4 20.9 0.00 0.03 0.03 40 1016.6
20260503200035 18 126 4.8 11.3 0.00 0.03 0.03 37 1016.7
20260503195521 18 188 3.2 17.7 0.00 0.03 0.03 46 1017.0
20260503195022 18 220 4.8 19.3 0.00 0.03 0.03 41 1017.1
20260503194541 17 229 8.0 19.3 0.00 0.03 0.03 40 1017.2
20260503194023 17 185 4.8 17.7 0.00 0.03 0.03 37 1017.4
20260503193523 17 229 6.4 16.1 0.00 0.03 0.03 35 1017.5
20260503193040 17 279 6.4 17.7 0.00 0.03 0.03 38 1017.5
20260503192522 17 249 8.0 17.7 0.00 0.03 0.03 37 1017.5
20260503192022 17 207 3.2 17.7 0.00 0.03 0.03 41 1017.5
20260503191540 17 360 6.4 17.7 0.00 0.03 0.03 38 1017.5
20260503191025 17 360 4.8 16.1 0.00 0.03 0.03 41 1017.5
20260503190523 17 223 6.4 16.1 0.00 0.03 0.03 40 1017.9
20260503190044 17 255 4.8 24.1 0.00 0.03 0.03 39 1018.0
20260503185522 17 321 9.7 24.1 0.00 0.03 0.03 38 1018.1
20260503185022 16 142 8.0 22.5 0.00 0.03 0.03 38 1018.1
20260503184540 16 149 4.8 19.3 0.00 0.03 0.03 41 1018.2
20260503184022 16 138 3.2 16.1 0.00 0.03 0.03 41 1018.2
20260503183523 16 282 4.8 19.3 0.00 0.03 0.03 37 1018.3
20260503183037 16 234 4.8 19.3 0.00 0.03 0.03 39 1018.4
20260503182527 16 360 6.4 19.3 0.00 0.03 0.03 41 1018.4
20260503182024 16 263 4.8 16.1 0.00 0.03 0.03 36 1018.5
20260503181538 16 360 4.8 16.1 0.00 0.03 0.03 42 1018.6
20260503181022 16 360 3.2 16.1 0.00 0.03 0.03 44 1018.6
20260503180522 16 360 8.0 16.1 0.00 0.03 0.03 40 1018.8
20260503180034 16 360 4.8 16.1 0.00 0.03 0.03 40 1018.8
20260503175522 16 360 6.4 17.7 0.00 0.03 0.03 37 1018.8
20260503175024 16 360 8.0 20.9 0.00 0.03 0.03 41 1019.0
20260503174558 15 360 4.8 20.9 0.00 0.03 0.03 42 1018.9
20260503174022 16 360 6.4 20.9 0.00 0.03 0.03 39 1019.0
20260503173522 15 360 3.2 14.5 0.00 0.03 0.03 42 1019.0
20260503173040 15 360 4.8 20.9 0.00 0.03 0.03 41 1019.1
20260503172523 15 360 9.7 20.9 0.00 0.03 0.03 41 1019.2
20260503172025 15 360 8.0 17.7 0.00 0.03 0.03 37 1019.3
20260503171533 15 360 3.2 19.3 0.00 0.03 0.03 41 1019.3
20260503171023 15 360 11.3 19.3 0.00 0.03 0.03 38 1019.4
20260503170523 15 360 3.2 20.9 0.00 0.03 0.03 39 1019.4
20260503150522 13 183 4.8 14.5 0.00 0.03 0.03 48 1020.7
20260503131025 8 184 6.4 17.7 0.00 0.03 0.03 77 1020.7
20260503130525 7 186 6.4 14.5 0.00 0.03 0.03 82 1020.7
20260503110528 0 0 0.0 0.0 0.03 0.03 0.03 93 1019.8
20260503081545 0 0 0.0 0.0 0.00 0.00 0.00 92 1019.5
20260503081021 0 0 0.0 0.0 0.00 0.00 0.00 91 1019.4
20260503080522 0 0 0.0 0.0 0.00 0.00 0.00 91 1019.6
20260503072523 1 0 0.0 0.0 0.00 0.00 0.00 91 1019.1
20260503072024 1 0 0.0 0.0 0.00 0.00 0.00 91 1019.1
20260503071541 1 0 0.0 0.0 0.00 0.00 0.00 91 1019.1
20260503071022 1 0 0.0 0.0 0.00 0.00 0.00 91 1019.1
20260503070522 1 0 0.0 0.0 0.00 0.00 0.00 90 1019.1
20260503055022 2 0 0.0 0.0 0.00 0.00 0.00 90 1019.2
20260503054536 2 0 0.0 0.0 0.00 0.00 0.00 90 1019.3
20260503054027 2 0 0.0 0.0 0.00 0.00 0.00 90 1019.2
20260503053522 2 0 0.0 0.0 0.00 0.00 0.00 90 1019.3
20260503053033 2 0 0.0 3.2 0.00 0.00 0.00 89 1019.3
20260503052523 2 0 0.0 3.2 0.00 0.00 0.00 89 1019.3
20260503052031 2 321 1.6 3.2 0.00 0.00 0.00 89 1019.3
20260503051537 3 321 0.0 3.2 0.00 0.00 0.00 89 1019.3
20260503051023 3 0 0.0 3.2 0.00 0.00 0.00 89 1019.3
20260503050523 3 321 1.6 3.2 0.00 0.00 0.00 89 1019.3
20260503050034 3 321 1.6 3.2 0.00 0.00 0.00 89 1019.2
20260503045524 3 321 0.0 1.6 0.00 0.00 0.00 88 1019.2
20260503045023 3 0 0.0 0.0 0.00 0.00 0.00 89 1019.3
20260503044545 3 0 0.0 0.0 0.00 0.00 0.00 89 1019.3
20260503044023 3 0 0.0 0.0 0.00 0.00 0.00 89 1019.2
20260503043522 3 0 0.0 0.0 0.00 0.00 0.00 88 1019.2
20260503043035 3 0 0.0 0.0 0.00 0.00 0.00 88 1019.2
20260503042523 3 0 0.0 0.0 0.00 0.00 0.00 88 1019.2
20260503042023 3 0 0.0 0.0 0.00 0.00 0.00 88 1019.1
20260503041532 3 0 0.0 3.2 0.00 0.00 0.00 87 1019.1
20260503041023 4 0 0.0 3.2 0.00 0.00 0.00 87 1019.2
20260503040522 4 321 0.0 1.6 0.00 0.00 0.00 87 1019.1
20260503040035 4 0 0.0 1.6 0.00 0.00 0.00 87 1019.0
20260503035522 4 0 0.0 1.6 0.00 0.00 0.00 87 1019.0
20260503035022 4 0 0.0 0.0 0.00 0.00 0.00 87 1018.9
20260503034550 4 0 0.0 1.6 0.00 0.00 0.00 86 1019.0
20260503034025 4 0 0.0 1.6 0.00 0.00 0.00 85 1019.0
20260503033524 5 0 0.0 0.0 0.00 0.00 0.00 84 1019.0
20260503033035 5 0 0.0 1.6 0.00 0.00 0.00 84 1018.9
20260503032523 5 0 0.0 1.6 0.00 0.00 0.00 83 1018.8
20260503032023 5 0 0.0 0.0 0.00 0.00 0.00 81 1018.8
20260503031537 5 0 0.0 0.0 0.00 0.00 0.00 79 1018.7
20260503031022 5 0 0.0 0.0 0.00 0.00 0.00 79 1018.7
20260503030527 5 0 0.0 0.0 0.00 0.00 0.00 80 1018.6
20260503030041 5 0 0.0 0.0 0.00 0.00 0.00 79 1018.6
20260503025522 6 0 0.0 0.0 0.00 0.00 0.00 79 1018.7
20260503025022 6 0 0.0 0.0 0.00 0.00 0.00 81 1018.6
20260503024535 6 0 0.0 0.0 0.00 0.00 0.00 80 1018.6
20260503024023 6 0 0.0 0.0 0.00 0.00 0.00 80 1018.5
20260503023524 6 0 0.0 0.0 0.00 0.00 0.00 80 1018.4
20260503023038 6 0 0.0 0.0 0.00 0.00 0.00 79 1018.4
20260503022522 6 0 0.0 0.0 0.00 0.00 0.00 78 1018.4
20260503022022 7 0 0.0 0.0 0.00 0.00 0.00 77 1018.3
20260503021530 7 0 0.0 0.0 0.00 0.00 0.00 75 1018.3
20260503021022 7 0 0.0 0.0 0.00 0.00 0.00 75 1018.3
20260503020524 7 0 0.0 0.0 0.00 0.00 0.00 75 1018.2
20260503020035 7 0 0.0 0.0 0.00 0.00 0.00 73 1018.1
20260503015521 7 0 0.0 0.0 0.00 0.00 0.00 72 1018.1
20260503015021 8 0 0.0 0.0 0.00 0.00 0.00 72 1018.1